Weather Service Report


545 
ASUS45 KBOU 201106
RWRCO 

WEATHER ROUNDUP FOR COLORADO
NATIONAL WEATHER SERVICE DENVER/BOULDER CO
500 AM MDT SUN APR 20 2014

NOTE: "FAIR" INDICATES FEW OR NO CLOUDS BELOW 12000 FEET WITH NO
SIGNIFICANT WEATHER AND/OR OBSTRUCTIONS TO VISIBILITY.

COZ001>005-013-030-031-201200-
...NORTHWEST COLORADO...
  
CITY           SKY/WX    TMP DP  RH WIND       PRES   REMARKS
CRAIG          CLEAR     30  29  96 CALM      30.13F                  
HAYDEN         CLEAR     37  32  81 E7        30.16S                  
MEEKER         PTCLDY    36  32  85 NE6       30.14S                  
MOUNT WERNER   CLOUDY    36  32  87 W5        30.28S                  
STEAMBOAT SPGS CLEAR     34  32  93 CALM      30.16S                  
WALDEN         MOCLDY    30  28  93 E8        30.17F WCI  23          
$$

COZ006>008-011-201200-
...WEST CENTRAL VALLEYS...
  
CITY           SKY/WX    TMP DP  RH WIND       PRES   REMARKS
GRAND JUNCTION CLEAR     41  38  89 E5        30.09R                  
MONTROSE       PTCLDY    41  38  89 SE7       30.15S                  
EAGLE          CLOUDY    39  37  93 E3        30.18S                  
RIFLE          CLEAR     37  34  89 SE3       30.13S                  
DELTA          PTCLDY    43  38  82 NE3       30.13S                  
NUCLA            N/A     37  34  87 E6        30.17S                  
$$

COZ017>023-064>068-201200-
...SOUTHWEST COLORADO...
  
CITY           SKY/WX    TMP DP  RH WIND       PRES   REMARKS
DURANGO        MOCLDY    35  31  85 NE6       30.12F WCI  30          
CORTEZ         CLEAR     37  33  85 E6        30.13S                  
PAGOSA SPRINGS MOCLDY    35  33  94 CALM      30.16F                  
TELLURIDE      MOCLDY    36  32  87 CALM      30.22F                  
WOLF CREEK PAS MOCLDY    28  27  93 CALM      30.29S                  
$$

COZ009-010-012-014-032>034-037-058>063-201200-
...CENTRAL COLORADO...
  
CITY           SKY/WX    TMP DP  RH WIND       PRES   REMARKS
ASPEN          MOCLDY    37  31  78 SW8       30.18R                  
BUENA VISTA    PTCLDY    37  34  86 W8        30.17S                  
COPPER MTN     CLOUDY    34  30  86 W10       30.31S WCI  26          
BERTHOUD PASS  HAZE      27  18  69 N12G23    30.32R VSB<1/4 WCI  16  
COTTONWOOD PAS PTCLDY    39  30  70 CALM      30.22F                  
GUNNISON       MOCLDY    34  28  80 CALM      30.21S                  
KREMMLING      MOCLDY    34  32  93 CALM      30.21R                  
LEADVILLE      PTCLDY    29  27  92 CALM      30.23S                  
MONARCH PASS   FOG       30  28  93 W17G24    30.38S VSB<1/4 WCI  18  
SALIDA         PTCLDY    42  39  91 W3        30.22F                  
SUNLIGHT       PTCLDY    36  32  87 CALM      30.29F                  
WILKERSON PASS MOCLDY    32  30  93 NW6       30.28S WCI  26          
$$

COZ069>075-201200-
...SAN LUIS VALLEY/SANGRE DE CRISTO MOUNTAINS...
  
CITY           SKY/WX    TMP DP  RH WIND       PRES   REMARKS
ALAMOSA        CLOUDY    44  39  82 SE3       30.13F                  
LA VETA PASS   LGT RAIN  34  32  93 SW6       30.20S WCI  29          
SAGUACHE       CLOUDY    45  34  65 N12G17    30.15S                  
$$

COZ035-036-038>040-201200-
...NORTHERN COLORADO FRONT RANGE...
  
CITY           SKY/WX    TMP DP  RH WIND       PRES   REMARKS
DENVER INTL AP PTCLDY    49  39  68 S12       30.02F                  
DMNS CITY PARK   N/A     48  39  71 S5        30.01F                  
AURORA         NOT AVBL                                               
FRONT RANGE AP NOT AVBL                                               
ERIE MUNI ARPT CLEAR     43  41  94 CALM      30.02S                  
BOULDER MUN AP CLEAR     46  41  81 CALM      30.03S                  
CENTENNIAL     PTCLDY    44  37  76 S6        30.04F                  
BROOMFIELD     CLEAR     46  39  76 NW7       30.03S                  
FORT COLLINS   CLEAR     39  36  87 N9        30.04F                  
LONGMONT       CLEAR     40  38  91 CALM      30.04S                  
$$

COZ041-046-047-076>085-087-088-201200-
...PIKES PEAK/PALMER DIVIDE AND SOUTHERN FOOTHILLS...
  
CITY           SKY/WX    TMP DP  RH WIND       PRES   REMARKS
COLO. SPRINGS  CLOUDY    51  34  52 NW12      30.05F                  
A. F. ACADEMY  CLOUDY    42  37  84 NE6       30.07F                  
ELLICOTT       NOT AVBL                                               
FALCON         CLOUDY    47  31  55 NW9       30.08F                  
FORT CARSON    CLOUDY    51  32  49 CALM      30.03F                  
LIMON          MOCLDY    38  37  97 N5        30.02F                  
MONUMENT HILL  MOCLDY    41  32  70 SW8       30.08S                  
TRINIDAD       CLOUDY    50  44  80 W7        30.05S                  
$$

COZ042>045-048>051-090-091-201200-
...NORTHEAST COLORADO...
  
CITY           SKY/WX    TMP DP  RH WIND       PRES   REMARKS
GREELEY ARPT   CLEAR     39  34  81 CALM      30.02F                  
AKRON          PTCLDY    47  39  74 NW13      30.00F                  
BURLINGTON     CLOUDY    46  43  89 N9        29.99S                  
WRAY           CLEAR     42  41  96 CALM      30.01S                  
STERLING       PTCLDY    37  37 100 NW3       30.00S                  
HOLYOKE        CLEAR     39  34  81 W7        30.01S                  
FORT MORGAN    PTCLDY    39  38  94 NE6       30.02S                  
$$

COZ086-089-092>099-201200-
...SOUTHEAST COLORADO...
  
CITY           SKY/WX    TMP DP  RH WIND       PRES   REMARKS
PUEBLO         CLOUDY    54  44  69 NW13      30.00F                  
LA JUNTA       CLOUDY    56  42  59 NW8       29.98R                  
LAMAR          MOCLDY    50  44  80 S8        29.91S                  
SPRINGFIELD      N/A     51  46  83 SW12      29.99R                  
$$

Return to Home page


Western Regional Climate Center, wrcc@dri.edu